SL-19 DEB, 24679

Orbit data source: Space-Track

SL-19 DEB, 24679 is space debris in LEO originally from a launch on Mon, 26 Dec 1994 UTC launched from the Tyuratam Missile And Space Complex (TTMTR). Debris objects in space refer to the collection of defunct objects orbiting the Earth. Examples of debris include non-operational satellites, rocket bodies, and fragments generated from explosions, collisions, or faulty payload assembly.

Loading next visibility...
Identifier
24679, 1994-085Y
Orbit
LEO
Country
Flag of CISCIS
Related business
Manufacturer
Unknown
Mission
Spacecraft
Bus & Motor
Unknown
Mass
Unknown
Launch date (UTC)
1994-12-26 (31 years ago)
Launch vehicle
Unknown
Launch site
Tyuratam Missile And Space Complex (TTMTR)
Object type
Payload
Rocket body
Debris
Shape & HBR
Unknown shape, 0.1 m
Radar Cross Section
Medium (>0.1 m² and <1 m²)

Expand to show TLE details & history
Last TLE update: 2 days ago

TLE from 2 days ago
0 SL-19 DEB
1 24679U 94085Y   26171.15035934 -.00000024  00000-0  48466-3 0  9999
2 24679  64.9835 234.4015 0174618 102.5436 284.8864 11.32320169466534
Epoch: 2026-06-20T03:36Z
TLE epoch observation values (Epoch: 2026-06-20T03:36:31.046Z)
Latitude
22.98074°
Longitude
-76.73659°
Altitude
1,965.316 km
Speed
6.93 km/s
True Right ascension
16h 23m 02s
True Declination
22° 52' 31"
Sunlit
Object was in daylight at epoch
Visualization orbit readout
Latitude
Unknown
Longitude
Unknown
Altitude
Unknown
Speed
Unknown
Apparent Right ascension
Unknown
Apparent Declination
Unknown
Sunlit
N/A
Visualization observer readout
Local Sidereal Time
23:27:14
Azimuth
Unknown
Elevation
Unknown
Doppler factor
Unknown
Orbital elements
Apogee altitude
2,143.915 km
Perigee altitude
1,851.402 km
Semi-major axis
8,375.796 km
Eccentricity
0.01746
Inclination
64.9835°
RAAN
234.4015°
Arg. of periapsis
102.5436°
True anomaly
282.94205°
Mean anomaly
284.8864°
Eccentric anomaly
283.91527°
Mean motion
2.83142 °/min
Orbital period
127.14 mins
BSTAR
0.00048466
Loading maneuver chart data...
Computing Atmospheric mass density...
Loading historical data...
Loading historical data...
Loading historical data...
Loading historical data...
Loading historical data...
Loading historical data...
Loading historical data...

Documentation

Showing up to 5 results
|